When you browse on this site, cookies collect data to enhance your experience and personalize the content and advertising you see.
Visit our Privacy Policy to learn more. By continuing to use the site, you agree to this use of cookies and data.
  • In Österreich
  • Länderverzeichnis
  • Für 7 Tage
  • Wassertemperatur
  • Wetterkarte
  • News
  • Widgets
  • user-avatar
    Anmelden

    Stündliche Wetter Dinagepoor

    Heute, 28 Februar, Freitag

    Zeit Temperatur Niederschläge Wind Luftdruck Luftfeuchtigkeit
    00:00 +22°C° 0 mm 1 m/S 758 mmHg 52%
    01:00 +22°C° 0 mm 1 m/S 758 mmHg 53%
    02:00 +21°C° 0 mm 1 m/S 757 mmHg 54%
    03:00 +21°C° 0 mm 1 m/S 757 mmHg 55%
    04:00 +21°C° 0 mm 1 m/S 757 mmHg 57%
    05:00 +20°C° 0 mm 1 m/S 757 mmHg 58%
    06:00 +20°C° 0 mm 1 m/S 758 mmHg 63%
    07:00 +20°C° 0 mm 2 m/S 758 mmHg 58%
    08:00 +23°C° 0 mm 2 m/S 759 mmHg 54%
    09:00 +24°C° 0 mm 2 m/S 759 mmHg 49%
    10:00 +26°C° 0 mm 2 m/S 759 mmHg 44%
    11:00 +27°C° 0 mm 2 m/S 759 mmHg 40%
    12:00 +28°C° 0 mm 2 m/S 759 mmHg 35%
    13:00 +29°C° 0 mm 2 m/S 758 mmHg 32%
    14:00 +30°C° 0 mm 1 m/S 757 mmHg 30%
    15:00 +30°C° 0 mm 1 m/S 756 mmHg 28%
    16:00 +29°C° 0 mm 1 m/S 756 mmHg 30%
    17:00 +28°C° 0 mm 1 m/S 756 mmHg 32%
    18:00 +27°C° 0 mm 1 m/S 756 mmHg 35%
    19:00 +26°C° 0 mm 2 m/S 757 mmHg 37%
    20:00 +25°C° 0 mm 2 m/S 757 mmHg 39%
    21:00 +24°C° 0 mm 2 m/S 757 mmHg 41%
    22:00 +24°C° 0 mm 2 m/S 757 mmHg 42%
    23:00 +24°C° 0 mm 2 m/S 757 mmHg 43%

    Morgen, 29 Februar, Samstag

    Zeit Temperatur Niederschläge Wind Luftdruck Luftfeuchtigkeit
    00:00 +23°C° 0 mm 2 m/S 757 mmHg 44%
    01:00 +23°C° 0 mm 2 m/S 756 mmHg 46%
    02:00 +21°C° 0 mm 2 m/S 756 mmHg 47%
    03:00 +21°C° 0 mm 2 m/S 755 mmHg 49%
    04:00 +21°C° 0 mm 1 m/S 755 mmHg 51%
    05:00 +21°C° 0 mm 1 m/S 756 mmHg 53%
    06:00 +21°C° 0 mm 1 m/S 756 mmHg 55%
    07:00 +21°C° 0 mm 2 m/S 756 mmHg 51%
    08:00 +24°C° 0 mm 2 m/S 757 mmHg 47%
    09:00 +25°C° 0 mm 2 m/S 757 mmHg 43%
    10:00 +27°C° 0 mm 1 m/S 757 mmHg 39%
    11:00 +29°C° 0 mm 1 m/S 757 mmHg 35%
    12:00 +30°C° 0 mm 1 m/S 757 mmHg 31%
    13:00 +31°C° 0 mm 1 m/S 756 mmHg 29%
    14:00 +31°C° 0 mm 1 m/S 755 mmHg 27%
    15:00 +31°C° 0 mm 1 m/S 755 mmHg 26%
    16:00 +30°C° 0 mm 1 m/S 755 mmHg 28%
    17:00 +29°C° 0 mm 1 m/S 754 mmHg 30%
    18:00 +28°C° 0 mm 1 m/S 754 mmHg 32%
    19:00 +28°C° 0 mm 2 m/S 755 mmHg 34%
    20:00 +27°C° 0 mm 2 m/S 755 mmHg 36%
    21:00 +26°C° 0 mm 2 m/S 756 mmHg 38%
    22:00 +25°C° 0 mm 2 m/S 756 mmHg 38%
    23:00 +25°C° 0 mm 2 m/S 756 mmHg 39%

    übermorgen, 1 März, Sonntag

    Zeit Temperatur Niederschläge Wind Luftdruck Luftfeuchtigkeit
    00:00 +25°C° 0 mm 1 m/S 756 mmHg 39%
    01:00 +24°C° 0 mm 1 m/S 756 mmHg 41%
    02:00 +24°C° 0 mm 1 m/S 755 mmHg 42%
    03:00 +23°C° 0 mm 1 m/S 755 mmHg 44%
    04:00 +23°C° 0 mm 1 m/S 755 mmHg 45%
    05:00 +22°C° 0 mm 1 m/S 755 mmHg 47%
    06:00 +22°C° 0 mm 1 m/S 755 mmHg 49%
    07:00 +23°C° 0 mm 1 m/S 756 mmHg 45%
    08:00 +25°C° 0 mm 1 m/S 757 mmHg 41%
    09:00 +27°C° 0 mm 1 m/S 758 mmHg 38%
    10:00 +28°C° 0 mm 1 m/S 757 mmHg 34%
    11:00 +30°C° 0 mm 1 m/S 757 mmHg 31%
    12:00 +32°C° 0 mm 1 m/S 757 mmHg 27%
    13:00 +32°C° 0 mm 1 m/S 756 mmHg 27%
    14:00 +32°C° 0 mm 2 m/S 755 mmHg 26%
    15:00 +34°C° 0 mm 2 m/S 754 mmHg 25%
    16:00 +32°C° 0 mm 2 m/S 754 mmHg 27%
    17:00 +31°C° 0 mm 2 m/S 753 mmHg 30%
    18:00 +30°C° 0 mm 2 m/S 753 mmHg 32%
    19:00 +29°C° 0 mm 2 m/S 754 mmHg 33%
    20:00 +28°C° 0 mm 1 m/S 754 mmHg 34%
    21:00 +27°C° 0 mm 1 m/S 755 mmHg 36%
    22:00 +27°C° 0 mm 1 m/S 755 mmHg 37%
    23:00 +27°C° 0 mm 1 m/S 755 mmHg 38%

    2 März, Montag

    Zeit Temperatur Niederschläge Wind Luftdruck Luftfeuchtigkeit
    00:00 +24°C° 0 mm 0 m/S 755 mmHg 38%
    01:00 +24°C° 0 mm 0 m/S 754 mmHg 40%
    02:00 +23°C° 0 mm 0 m/S 754 mmHg 41%
    03:00 +23°C° 0 mm 0 m/S 754 mmHg 43%
    04:00 +22°C° 0 mm 0 m/S 754 mmHg 44%
    05:00 +22°C° 0 mm 0 m/S 754 mmHg 46%
    06:00 +21°C° 0 mm 0 m/S 754 mmHg 47%
    07:00 +25°C° 0 mm 1 m/S 755 mmHg 44%
    08:00 +26°C° 0 mm 1 m/S 756 mmHg 40%
    09:00 +28°C° 0 mm 1 m/S 756 mmHg 37%
    10:00 +30°C° 0 mm 1 m/S 756 mmHg 33%
    11:00 +31°C° 0 mm 1 m/S 756 mmHg 30%
    12:00 +33°C° 0 mm 1 m/S 756 mmHg 27%
    13:00 +33°C° 0 mm 1 m/S 755 mmHg 25%
    14:00 +35°C° 0 mm 2 m/S 754 mmHg 24%
    15:00 +35°C° 0 mm 3 m/S 753 mmHg 22%
    16:00 +34°C° 0 mm 3 m/S 753 mmHg 25%
    17:00 +33°C° 0 mm 3 m/S 753 mmHg 28%
    18:00 +31°C° 0 mm 2 m/S 752 mmHg 31%
    19:00 +30°C° 0 mm 2 m/S 753 mmHg 32%
    20:00 +29°C° 0 mm 2 m/S 754 mmHg 34%
    21:00 +28°C° 0 mm 2 m/S 754 mmHg 35%
    22:00 +27°C° 0.1 mm 2 m/S 754 mmHg 39%
    23:00 +26°C° 0.1 mm 2 m/S 754 mmHg 43%

    3 März, Dienstag

    Zeit Temperatur Niederschläge Wind Luftdruck Luftfeuchtigkeit
    00:00 +25°C° 0.1 mm 2 m/S 754 mmHg 47%
    01:00 +25°C° 0.1 mm 2 m/S 754 mmHg 48%
    02:00 +24°C° 0.1 mm 1 m/S 754 mmHg 49%
    03:00 +24°C° 0.1 mm 1 m/S 754 mmHg 50%
    04:00 +24°C° 0 mm 1 m/S 754 mmHg 51%
    05:00 +24°C° 0 mm 1 m/S 754 mmHg 51%
    06:00 +24°C° 0 mm 1 m/S 754 mmHg 51%
    07:00 +25°C° 0 mm 1 m/S 755 mmHg 49%
    08:00 +26°C° 0 mm 2 m/S 755 mmHg 46%
    09:00 +27°C° 0 mm 3 m/S 756 mmHg 44%
    10:00 +29°C° 0 mm 2 m/S 756 mmHg 40%
    11:00 +30°C° 0 mm 2 m/S 755 mmHg 36%
    12:00 +32°C° 0 mm 1 m/S 755 mmHg 32%
    13:00 +34°C° 0 mm 2 m/S 754 mmHg 29%
    14:00 +35°C° 0 mm 2 m/S 753 mmHg 26%
    15:00 +35°C° 0 mm 3 m/S 752 mmHg 24%
    16:00 +34°C° 0 mm 3 m/S 752 mmHg 26%
    17:00 +33°C° 0 mm 3 m/S 752 mmHg 27%
    18:00 +31°C° 0 mm 3 m/S 752 mmHg 29%
    19:00 +30°C° 0 mm 2 m/S 752 mmHg 31%
    20:00 +30°C° 0 mm 2 m/S 753 mmHg 33%
    21:00 +29°C° 0 mm 2 m/S 753 mmHg 35%
    22:00 +27°C° 0 mm 3 m/S 754 mmHg 42%
    23:00 +26°C° 0 mm 4 m/S 754 mmHg 49%

    4 März, Mittwoch

    Zeit Temperatur Niederschläge Wind Luftdruck Luftfeuchtigkeit
    00:00 +25°C° 0 mm 5 m/S 754 mmHg 56%
    01:00 +23°C° 0 mm 4 m/S 754 mmHg 61%
    02:00 +22°C° 0 mm 4 m/S 753 mmHg 65%
    03:00 +21°C° 0 mm 3 m/S 753 mmHg 70%
    04:00 +21°C° 0 mm 3 m/S 753 mmHg 71%
    05:00 +21°C° 0 mm 3 m/S 754 mmHg 72%
    06:00 +20°C° 0 mm 3 m/S 754 mmHg 74%
    07:00 +22°C° 0 mm 3 m/S 755 mmHg 69%
    08:00 +23°C° 0 mm 4 m/S 755 mmHg 65%
    09:00 +25°C° 0 mm 4 m/S 756 mmHg 60%
    10:00 +27°C° 0 mm 4 m/S 756 mmHg 54%
    11:00 +29°C° 0 mm 4 m/S 756 mmHg 47%
    12:00 +31°C° 0 mm 3 m/S 755 mmHg 40%
    13:00 +32°C° 0 mm 2 m/S 754 mmHg 36%
    14:00 +33°C° 0 mm 1 m/S 753 mmHg 32%
    15:00 +32°C° 0 mm 0 m/S 752 mmHg 28%
    16:00 +33°C° 0 mm 1 m/S 752 mmHg 29%
    17:00 +32°C° 0 mm 1 m/S 752 mmHg 31%
    18:00 +31°C° 0 mm 2 m/S 752 mmHg 32%
    19:00 +30°C° 0 mm 2 m/S 753 mmHg 35%
    20:00 +29°C° 0 mm 3 m/S 753 mmHg 38%
    21:00 +28°C° 0 mm 3 m/S 754 mmHg 41%
    22:00 +27°C° 0.1 mm 3 m/S 755 mmHg 49%
    23:00 +25°C° 0.1 mm 3 m/S 755 mmHg 57%
    Mehr zeigen